Renton, WA
on Friday, December 14, 2012

Friday
Previous Day Next Day
Daily Summary
 ActualAverage (KSEA)Record (KSEA)
Temperature
Mean Temperature °F 40°F  
Max Temperature 46°F 45°F 59°F (2002)
Min Temperature 35°F 35°F 22°F (2008)
Degree Days
Heating Degree Days 24 25  
Month to date heating degree days 335  
Since 1 July heating degree days 1518  
Cooling Degree Days 0 0  
Month to date cooling degree days 0  
Year to date cooling degree days 189  
Moisture
Dew Point 37°F   
Average Humidity 85    
Maximum Humidity 93    
Minimum Humidity 71    
Precipitation
Precipitation 0.23 in 0.17 in 1.67 in (1979)
Month to date precipitation 2.54  
Year to date precipitation 34.68  
Snow
Snow 0.00 in in 0.70 in (2008)
Month to date snowfall  
Since 1 July snowfall  
Snow Depth in   
Wind
Wind Speed 2 mph   
Max Wind Speed 6 mph   
Max Gust Speed mph   
Visibility 8 miles   
Events Rain   

Key: T is trace of precipitation, MM is missing value
Source: NWS Daily Summary
Time(PST)TemperatureDew PointHumidity Pressure Visibility Wind DirectionWind SpeedGust SpeedPrecipitationEvents Conditions
12:53 AM 42.1°F 37.9°F 85% 29.82 in 9.0 miles SE 3.5 mph - 0.02 in Rain Light Rain
1:53 AM 42.1°F 37.9°F 85% 29.81 in 10.0 miles SE 4.6 mph - 0.02 in Rain Light Rain
2:53 AM 42.1°F 39.0°F 89% 29.81 in 9.0 miles SE 3.5 mph - 0.03 in Rain Light Rain
3:53 AM 42.1°F 39.0°F 89% 29.81 in 6.0 miles Calm Calm - 0.05 in Rain Light Rain
4:53 AM 42.1°F 37.0°F 82% 29.81 in 7.0 miles Calm Calm - 0.07 in Rain Light Rain
5:03 AM 42.8°F 37.4°F 81% 29.79 in 9.0 miles Calm Calm - 0.01 in Rain Light Rain
5:46 AM 42.8°F 37.4°F 81% 29.81 in 9.0 miles Calm Calm - 0.02 in Rain Light Rain
5:53 AM 42.1°F 37.9°F 85% 29.82 in 9.0 miles Calm Calm - 0.03 in Rain Light Rain
6:08 AM 42.8°F 37.4°F 81% 29.81 in 7.0 miles Calm Calm - 0.00 in Rain Light Rain
6:35 AM 41.0°F 39.2°F 93% 29.81 in 7.0 miles East 3.5 mph - 0.00 in Rain Light Rain
6:53 AM 41.0°F 37.9°F 89% 29.83 in 7.0 miles East 3.5 mph - 0.00 in Rain Light Rain
7:53 AM 41.0°F 39.0°F 93% 29.84 in 8.0 miles Calm Calm - 0.00 in Rain Light Rain
8:07 AM 41.0°F 39.2°F 93% 29.83 in 5.0 miles ESE 3.5 mph - 0.01 in Rain Light Rain
8:53 AM 41.0°F 39.0°F 93% 29.87 in 10.0 miles Calm Calm - 0.01 in Rain Light Rain
9:53 AM 42.1°F 37.0°F 82% 29.88 in 10.0 miles Calm Calm - 0.00 in   Overcast
10:16 AM 42.8°F 37.4°F 81% 29.88 in 10.0 miles Calm Calm - N/A   Overcast
10:53 AM 42.1°F 37.9°F 85% 29.89 in 10.0 miles Calm Calm - N/A   Overcast
11:53 AM 44.1°F 37.9°F 79% 29.90 in 10.0 miles Calm Calm - 0.00 in   Overcast
12:22 PM 44.6°F 37.4°F 76% 29.89 in 10.0 miles NNW 5.8 mph - N/A   Overcast
12:53 PM 46.0°F 39.0°F 76% 29.91 in 10.0 miles Calm Calm - N/A   Mostly Cloudy
1:53 PM 45.0°F 36.0°F 71% 29.92 in 10.0 miles NNW 4.6 mph - N/A   Overcast
2:53 PM 44.1°F 37.0°F 76% 29.93 in 10.0 miles NE 3.5 mph - N/A   Overcast
3:53 PM 44.1°F 35.1°F 71% 29.95 in 10.0 miles Calm Calm - N/A   Overcast
4:53 PM 43.0°F 37.0°F 80% 29.96 in 10.0 miles Calm Calm - N/A   Overcast
5:53 PM 42.1°F 37.0°F 82% 29.96 in 10.0 miles Calm Calm - N/A   Overcast
6:53 PM 39.9°F 36.0°F 86% 29.96 in 10.0 miles Calm Calm - N/A   Scattered Clouds
7:53 PM 37.9°F 35.1°F 89% 29.96 in 10.0 miles SSE 3.5 mph - N/A   Scattered Clouds
8:53 PM 37.9°F 34.0°F 86% 29.97 in 10.0 miles Calm Calm - N/A   Clear
9:53 PM 37.0°F 33.1°F 86% 29.97 in 10.0 miles ESE 4.6 mph - N/A   Clear
10:19 PM 37.4°F 33.8°F 87% 29.96 in 8.0 miles SSE 4.6 mph - N/A   Scattered Clouds
10:26 PM 37.4°F 33.8°F 87% 29.95 in 2.5 miles SSE 4.6 mph - N/A   Mostly Cloudy
10:36 PM 35.6°F 33.8°F 93% 29.95 in 0.8 miles SSE 4.6 mph - N/A   Overcast
10:53 PM 36.0°F 33.1°F 89% 29.96 in 1.2 miles SSE 4.6 mph - N/A   Mostly Cloudy
11:04 PM 35.6°F 33.8°F 93% 29.95 in 2.0 miles SSE 3.5 mph - N/A   Scattered Clouds
11:18 PM 35.6°F 33.8°F 93% 29.94 in 3.0 miles SSE 4.6 mph - N/A   Mostly Cloudy
11:31 PM 35.6°F 33.8°F 93% 29.94 in 4.0 miles SSE 4.6 mph - N/A   Partly Cloudy
11:53 PM 36.0°F 33.1°F 89% 29.95 in 8.0 miles SSE 5.8 mph - N/A   Clear
Moon Phase
Dec. 14 Dec. 20 Dec. 28 Jan. 04 Jan. 11
Sunrise:07:49 AM (PST) Moon Rise:08:55 AM (PST)12/14
Sunset:04:18 PM (PST) Moon Set:06:22 PM (PST)12/14

Copyright © 2014 The Weather Underground, Inc.